Helicity
117 144 138 129 135 111 117 171 209 107 233 258 216 205 337 231 224 16 120 165 229 160 181 193 115 102 177 177 125 186 205 207 175 109 142 129 157 185 277 203 95 164 239 164
122 128 139 144 155 144 220 241 205 119 268 300 259 259 219 221 196 181 128 140 72 73 121 108 100 105 170 222 139 167 171 143 187 187 155 152 154 219 273 173 160 242 251 307
117 129 150 154 162 122 192 281 314 238 170 202 178 252 200 189 130 62 135 133 90 79 65 123 169 132 153 185 274 242 204 157 157 150 119 136 189 258 221 176 244 226 280 286
122 134 138 150 157 114 192 335 342 350 307 228 250 239 202 149 195 145 128 93 61 81 122 97 124 127 191 236 160 122 138 166 159 161 158 192 187 218 161 249 206 265 307 172
88 104 101 115 149 106 255 394 457 448 313 262 199 209 155 152 102 185 168 88 118 95 155 178 85 65 141 244 80 145 187 106 147 139 125 134 152 136 202 186 183 180 129 147
99 70 107 71 127 176 365 292 350 386 306 261 231 144 183 191 179 78 95 89 90 59 67 140 119 111 137 236 196 163 235 182 175 100 93 144 116 180 134 161 161 203 204 132
114 98 97 92 94 165 360 331 388 438 387 325 212 187 159 176 149 118 188 61 73 104 72 131 247 263 230 173 299 247 297 316 239 167 173 90 244 184 140 168 311 321 274 292
93 104 105 103 92 125 327 245 331 411 382 280 264 271 230 175 131 130 123 87 82 87 236 185 145 248 180 188 250 292 335 358 295 220 141 219 159 189 191 219 258 345 317 288
111 97 97 118 111 103 261 326 247 320 267 203 221 197 189 166 148 117 149 210 220 260 185 242 180 179 166 139 220 372 466 409 351 316 196 133 142 142 289 332 295 308 237 184
111 120 105 96 132 100 245 334 246 266 210 198 213 162 143 158 177 127 176 232 247 267 275 201 200 179 224 181 244 257 374 404 370 317 320 288 271 336 402 309 229 243 131 91
120 114 110 90 123 126 250 270 282 239 212 219 253 238 221 251 217 178 149 256 301 284 256 195 278 274 350 353 301 353 425 387 438 402 358 255 389 390 348 286 172 107 121 103
123 101 100 105 120 113 222 305 307 235 165 148 109 95 110 157 142 147 151 206 181 301 215 232 220 300 318 331 330 477 451 519 367 314 258 355 569 563 221 132 142 154 143 132
112 99 110 114 125 110 202 374 382 316 203 129 31 5 12 93 118 131 138 121 95 172 285 316 271 377 302 352 469 495 376 391 341 322 326 412 382 204 222 204 192 188 239 304
112 106 97 113 123 102 242 381 360 352 258 127 67 -3 -32 59 98 53 91 179 199 299 369 458 503 309 276 304 310 249 249 291 289 336 394 311 245 205 226 354 359 330 310 289
96 73 91 124 115 122 363 413 314 310 304 58 5 95 109 95 70 85 81 126 143 233 335 407 368 452 317 317 316 278 316 329 358 268 200 213 350 398 320 308 260 235 229 242
61 97 115 119 118 208 406 356 234 262 248 146 38 134 165 156 117 206 279 247 227 294 306 366 354 405 308 270 231 231 152 172 228 191 326 420 350 341 282 260 237 220 226 225
102 93 98 121 168 310 356 324 215 288 293 250 96 34 135 241 121 148 231 313 266 269 308 357 430 452 403 364 311 316 340 417 368 374 376 422 341 247 227 181 172 184 194 217
106 106 118 152 214 261 334 336 115 377 330 225 131 111 188 160 227 183 225 216 228 256 312 390 430 360 429 368 319 346 480 471 395 361 314 255 208 194 159 156 174 229 251 221
95 111 156 236 325 310 276 177 185 377 291 251 139 122 199 153 188 191 196 192 179 149 220 276 262 345 305 214 187 365 298 241 244 254 215 190 188 170 171 191 220 184 143 125
155 341 328 362 462 221 291 269 260 228 188 252 206 256 226 232 191 180 108 88 50 36 103 236 274 283 345 264 383 354 273 208 174 217 178 169 163 159 169 160 91 88 93 89
484 434 417 317 159 261 242 169 161 214 261 208 215 258 335 386 166 77 70 -65 -35 47 156 284 188 236 315 338 458 336 264 226 213 186 149 124 142 146 91 84 105 94 91 75
188 228 394 426 190 211 132 177 230 230 145 239 368 352 352 275 309 166 96 59 76 109 195 227 160 204 360 374 340 263 201 187 171 133 132 145 103 66 101 107 97 54 75 63
289 308 332 228 203 157 53 8 40 -14 28 146 297 367 327 325 226 211 147 68 82 304 149 51 147 316 389 378 286 208 151 149 137 153 128 62 104 120 90 43 47 80 80 66
214 197 136 135 24 -14 -52 -41 -77 -31 -46 79 359 486 331 287 256 122 80 170 290 63 111 202 201 307 328 264 213 186 149 137 146 88 64 118 105 73 37 60 82 92 83 74
202 150 4 -19 1 4 17 5 101 177 161 314 382 441 367 439 277 194 203 180 61 50 163 121 229 284 286 242 171 158 156 137 95 75 125 96 72 53 81 85 98 113 114 125
197 64 -8 58 -29 -56 47 80 135 192 359 548 406 277 214 197 237 164 135 206 101 91 136 166 225 262 226 198 158 159 135 114 104 137 116 80 41 60 119 129 131 118 116 116
41 24 15 51 -6 -0 95 130 167 290 384 312 196 201 158 215 199 213 254 183 92 129 156 179 201 217 185 173 181 163 160 157 164 129 77 51 67 116 140 154 123 117 112 101
Wind_Speed
70 66 63 58 49 39 37 46 54 32 34 52 58 60 53 50 45 60 64 59 55 50 50 50 53 46 41 48 31 38 44 45 56 59 49 49 48 48 46 61 70 70 79 86
72 67 63 59 51 42 40 52 50 28 37 64 67 56 59 61 53 54 53 53 43 50 59 57 50 52 46 50 39 37 40 51 60 63 56 50 51 42 49 63 75 79 80 87
74 69 65 61 57 49 46 48 57 52 55 61 56 56 61 59 53 65 55 55 58 61 59 57 62 57 49 46 49 46 42 46 55 73 65 57 63 56 66 74 86 95 80 93
76 71 69 64 60 56 54 59 63 55 65 69 60 54 54 58 64 52 45 63 64 67 69 68 68 58 54 54 42 39 42 61 64 67 65 69 75 73 73 76 84 84 90 89
80 74 71 67 64 61 70 69 59 60 64 51 63 66 70 69 60 55 56 68 69 62 74 71 74 60 56 59 61 50 52 73 68 81 74 80 92 82 83 85 89 86 79 80
82 78 74 71 69 69 72 71 60 55 67 58 64 71 63 59 55 55 49 50 49 60 70 67 71 65 59 62 71 67 59 62 72 102 77 87 93 79 79 76 69 70 79 75
84 81 79 78 77 79 61 68 59 62 72 66 68 64 62 62 52 55 47 45 55 62 50 50 57 64 71 67 59 53 59 66 69 91 83 110 76 56 64 75 71 68 68 64
86 82 81 80 80 79 74 57 72 67 77 69 75 61 54 60 63 62 62 73 73 49 50 58 64 66 71 69 64 59 54 63 76 83 91 95 92 76 71 68 65 59 55 56
84 82 83 81 81 79 77 66 63 66 72 83 61 66 70 72 67 68 69 62 50 43 51 55 70 75 71 70 65 55 51 51 57 64 84 100 71 60 59 58 70 54 52 55
90 86 85 83 82 81 76 78 59 71 73 61 60 70 60 51 52 61 56 55 51 48 53 68 73 78 64 86 74 57 55 58 60 63 74 75 62 53 52 67 63 52 54 60
88 86 85 84 82 80 76 79 71 66 73 63 53 52 61 57 52 52 48 49 54 52 61 69 60 71 67 71 60 57 53 55 61 61 66 80 47 50 57 49 49 50 52 55
81 83 82 82 80 78 72 76 72 65 68 58 56 51 46 52 55 56 45 51 42 42 35 52 58 63 59 63 73 52 60 52 62 52 59 53 52 55 52 46 52 56 59 60
76 77 78 78 78 76 74 68 65 65 70 69 69 64 54 50 50 51 64 65 53 45 42 47 57 62 50 61 59 49 50 49 56 53 47 46 47 47 44 47 49 55 61 63
73 73 73 73 74 73 69 70 67 69 62 76 69 62 74 58 57 56 58 64 56 48 46 53 60 60 39 58 56 59 54 41 45 49 42 42 41 42 45 48 53 55 59 64
72 73 71 71 70 67 60 58 65 67 70 62 74 60 56 56 57 57 56 58 54 52 52 56 60 49 49 55 56 63 41 41 40 44 32 34 37 39 41 47 53 56 59 64
72 70 67 67 67 62 57 60 72 67 61 67 67 55 65 57 45 42 43 44 50 57 52 49 54 48 42 50 61 49 30 30 24 32 28 21 28 39 44 47 50 55 60 63
67 65 65 65 66 61 63 57 52 55 50 59 67 67 53 51 53 50 48 42 44 52 49 53 51 49 42 49 50 31 29 27 26 16 17 32 40 40 43 47 51 55 60 64
65 64 62 61 60 52 59 44 33 47 48 51 63 63 55 45 49 51 44 49 50 51 53 51 50 43 49 54 31 15 17 21 24 25 28 26 29 37 44 50 55 62 65 66
62 61 58 53 60 54 55 33 36 42 46 61 65 70 71 44 44 40 51 52 52 48 51 55 46 50 57 31 13 9 6 19 13 22 26 29 36 42 48 53 59 59 58 63
69 67 59 51 53 38 35 36 44 50 58 56 67 57 66 54 52 61 55 54 53 57 55 38 54 65 56 25 7 2 5 9 13 20 29 35 40 45 48 49 49 50 56 60
68 64 59 50 46 45 52 53 50 44 61 66 61 62 58 52 77 73 62 61 55 58 57 41 63 54 26 9 1 4 10 15 21 24 28 33 36 39 38 41 47 49 53 58
63 45 45 46 48 48 56 63 61 58 67 58 72 66 66 66 57 62 63 57 53 62 28 52 65 34 9 7 6 9 11 16 20 25 29 33 34 33 35 41 45 44 50 54
45 45 48 52 53 68 82 95 90 93 77 81 93 89 73 60 54 54 53 58 59 32 57 61 51 8 11 16 15 12 14 17 21 25 28 29 32 34 36 39 40 42 51 53
59 62 72 71 81 79 76 90 90 83 84 88 89 79 68 60 57 53 57 52 40 63 65 41 17 12 22 21 18 17 15 17 19 21 25 30 32 33 36 38 39 46 53 55
54 56 75 83 70 66 69 71 78 81 77 82 68 57 56 56 58 58 53 54 65 52 48 25 11 28 29 25 21 19 17 19 19 21 26 28 29 32 37 37 40 47 52 57
55 58 64 70 70 72 68 79 81 82 69 55 50 55 61 64 62 62 68 57 60 45 21 10 28 32 28 26 23 21 22 20 21 23 25 27 28 31 34 38 45 49 53 57
53 59 56 64 68 75 70 75 86 73 68 68 56 57 64 40 65 67 49 49 30 6 16 26 33 35 33 27 26 24 23 22 23 24 24 25 28 31 34 41 44 47 52 55
Wind_Direction
246 246 245 245 245 244 250 256 256 251 205 242 248 241 264 273 279 267 273 279 283 284 290 292 290 295 299 302 304 295 294 294 289 291 303 313 316 313 315 314 317 315 315 315
243 241 240 239 235 228 242 251 249 250 224 239 242 258 261 267 273 268 274 273 277 280 281 287 290 293 304 293 300 303 298 293 294 298 305 312 308 311 313 316 314 310 312 313
240 237 235 233 228 223 236 247 241 248 242 247 244 251 257 262 265 268 269 276 279 279 283 281 282 290 301 300 298 298 299 294 294 293 302 308 303 303 306 311 308 310 307 290
237 234 231 228 224 219 229 243 248 242 242 238 248 248 260 255 261 265 272 275 272 275 280 283 281 288 297 302 292 306 304 297 298 298 300 302 300 301 305 305 305 306 306 311
235 230 227 224 219 216 232 239 248 246 251 241 239 248 251 256 261 264 268 268 277 279 269 273 282 285 287 286 297 299 301 296 301 298 301 299 296 299 306 304 306 306 307 310
232 230 224 220 214 214 235 238 249 249 248 246 239 238 251 260 257 269 263 278 278 274 277 280 280 283 287 290 289 286 298 298 301 294 303 301 297 304 306 309 311 314 312 317
230 227 225 220 216 214 240 237 243 248 249 240 243 253 249 255 256 257 275 269 278 284 294 292 289 285 282 285 282 286 293 299 301 297 303 292 304 319 316 313 315 318 318 322
228 224 221 220 216 215 231 239 233 245 247 249 250 252 255 254 258 263 270 272 279 287 287 283 284 282 280 275 284 287 295 297 297 294 295 296 300 311 318 317 317 324 324 326
225 223 221 218 217 215 224 239 236 244 247 248 254 255 255 256 262 269 272 276 282 276 277 277 277 279 281 279 284 296 302 302 293 297 294 295 311 320 323 324 311 326 330 330
225 222 220 218 217 217 221 232 237 237 246 256 254 251 256 257 259 269 273 269 270 276 269 272 274 276 283 275 282 290 298 299 293 293 296 302 312 321 327 316 321 332 331 328
222 221 219 217 216 215 217 228 232 235 241 249 254 260 255 258 259 265 274 271 269 268 271 275 275 277 277 279 287 293 293 295 294 297 298 300 319 322 318 326 330 330 330 330
216 217 216 215 212 212 213 228 230 232 242 249 254 257 263 261 262 264 265 271 278 269 277 276 278 277 284 286 289 296 290 290 298 296 301 309 319 320 325 327 327 330 332 332
211 211 210 210 209 208 212 225 222 227 235 247 247 251 257 265 269 269 263 268 277 277 287 282 284 279 290 288 292 298 300 301 300 303 305 311 318 325 333 336 336 336 336 338
205 205 203 203 204 207 209 220 222 222 234 241 248 253 252 264 271 272 268 272 276 285 284 276 275 281 296 293 298 297 300 308 306 306 313 320 325 329 333 339 340 343 345 345
201 201 199 198 198 199 210 219 224 223 226 244 244 251 259 265 269 271 271 268 270 276 277 276 278 289 294 298 302 292 301 306 304 309 318 324 332 342 344 343 345 347 348 346
195 195 195 193 192 191 203 224 228 226 231 243 248 258 254 258 268 276 275 270 271 272 276 284 286 290 294 301 293 305 307 307 316 325 338 352 351 351 352 352 354 353 352 351
190 192 194 193 188 197 209 229 231 215 227 242 247 252 256 255 256 270 273 280 278 275 277 282 287 288 291 295 297 309 325 334 335 344 346 335 342 344 356 357 356 356 355 353
190 189 188 185 187 205 220 241 204 205 229 244 245 246 247 253 255 260 273 270 271 277 278 286 286 290 291 292 302 306 325 341 344 348 354 2 3 0 358 358 355 351 351 352
178 178 178 183 205 214 215 224 211 222 239 239 243 239 242 243 257 264 258 260 268 280 284 282 283 287 285 299 279 273 283 314 347 2 7 5 360 357 356 355 354 355 357 355
153 178 195 210 204 161 181 222 227 233 240 245 244 240 241 239 246 244 248 257 264 275 277 289 283 278 287 300 293 312 4 38 35 5 354 356 355 355 356 0 3 3 2 2
184 193 201 192 167 201 216 228 230 236 237 236 238 237 232 243 231 235 245 249 259 273 280 290 274 283 287 294 106 47 41 28 13 17 15 9 5 4 7 8 9 10 8 5
185 179 175 187 206 220 223 227 231 237 236 229 221 222 220 222 233 236 241 255 263 265 298 278 270 293 225 187 124 89 53 38 31 26 19 15 16 18 18 16 14 14 10 9
170 188 205 210 214 214 212 203 204 204 202 200 195 198 210 220 234 240 246 250 255 290 260 250 284 278 173 146 127 95 68 53 44 29 28 30 26 27 22 19 19 19 13 12
194 197 195 202 197 199 196 193 193 195 192 188 192 201 212 219 227 236 240 251 266 240 239 290 290 157 141 135 123 106 86 65 51 51 42 33 31 29 25 24 27 19 15 14
198 201 190 195 201 203 201 200 193 195 194 190 197 208 217 224 230 239 243 247 238 232 281 291 151 140 136 128 119 105 88 85 71 55 42 40 39 33 28 32 27 21 18 16
207 206 197 204 200 197 196 190 188 188 189 193 207 215 218 223 229 232 227 243 253 280 300 118 132 133 129 121 111 99 97 84 71 56 52 49 42 36 36 32 24 21 18 15
210 204 207 198 196 192 193 191 186 191 194 203 215 216 216 237 226 229 249 261 282 342 105 122 130 130 125 115 105 98 89 80 67 65 63 52 46 43 35 24 23 20 17 16